Location: Newark
(55.8871°S, 37.4681°W)
Time: 00:24:24
(UTC+00:00)

N. Korean satellite - Pass Details

Date: 17 October 2019
Orbit: 456 x 506 km, 97.2° (Epoch: 12 November)

Event Time Altitude Azimuth Distance (km) Brightness Sun altitude
Rises 22:29:59 0° 179° (S) 2,626 10.8 -9.9°
Reaches altitude 10° 22:33:27 10° 214° (SW) 1,718 10.6 -10.3°
Maximum altitude 22:34:35 11° 232° (SW) 1,636 10.8 -10.4°
Drops below altitude 10° 22:35:43 10° 250° (WSW) 1,703 10.7 -10.5°
Sets 22:39:06 0° 285° (WNW) 2,560 10.8 -10.9°
